This is the latest recevied weather packets stored in our database for station/object K0QED. If no packets are shown the sender has not sent any weather packets the latest 10 day(s).
| Time | Temp. | Humidity | Pressure | Rain* | Wind** | Luminosity | Snow |
|---|---|---|---|---|---|---|---|
| 1777668081 | 7.78° C | 51% | 1022.6 hPa | 0 mm | - | 168 W/m² | - |
| 1777667778 | 7.22° C | 53% | 1023 hPa | 0 mm | - | 192 W/m² | - |
| 1777667475 | 7.22° C | 51% | 1022.7 hPa | 0 mm | - | 223 W/m² | - |
| 1777667172 | 6.67° C | 54% | 1022.9 hPa | 0 mm | - | 242 W/m² | - |
| 1777666869 | 7.22° C | 49% | 1022.7 hPa | 0 mm | - | 276 W/m² | - |
| 1777666566 | 7.78° C | 49% | 1023.1 hPa | 0 mm | - | 225 W/m² | - |
| 1777666263 | 7.78° C | 51% | 1023.1 hPa | 0 mm | - | 239 W/m² | - |
| 1777665960 | 7.78° C | 51% | 1023.2 hPa | 0 mm | - | 717 W/m² | - |
| 1777665657 | 7.78° C | 49% | 1023 hPa | 0 mm | - | 325 W/m² | - |
| 1777665355 | 7.78° C | 52% | 1023.1 hPa | 0 mm | - | 921 W/m² | - |
| 1777665050 | 7.78° C | 60% | 1023.1 hPa | 0 mm | - | 617 W/m² | - |
| 1777664745 | 6.67° C | 55% | 1023.4 hPa | 0 mm | - | 629 W/m² | - |
| 1777664441 | 6.11° C | 57% | 1023.1 hPa | 0 mm | - | 451 W/m² | - |
| 1777664139 | 6.11° C | 61% | 1023.1 hPa | 0 mm | - | 267 W/m² | - |
| 1777663838 | 5.56° C | 61% | 1023.1 hPa | 0 mm | - | 221 W/m² | - |
| 1777663534 | 5.56° C | 57% | 1023 hPa | 0 mm | - | 200 W/m² | - |
| 1777663232 | 6.11° C | 59% | 1023.1 hPa | 1.27 mm | - | 189 W/m² | - |
| 1777662929 | 6.11° C | 58% | 1023.2 hPa | 1.27 mm | - | 181 W/m² | - |
| 1777662626 | 5.56° C | 55% | 1023.2 hPa | 0 mm | - | 209 W/m² | - |
| 1777662321 | 6.11° C | 55% | 1023 hPa | 0 mm | - | 274 W/m² | - |
| 1777662017 | 6.67° C | 57% | 1023 hPa | 1.78 mm | - | 284 W/m² | - |
| 1777661713 | 6.11° C | 58% | 1023.4 hPa | 1.78 mm | - | 335 W/m² | - |
| 1777661409 | 5.56° C | 60% | 1023.5 hPa | 0 mm | - | 393 W/m² | - |
| 1777661106 | 5.56° C | 57% | 1023.1 hPa | 1.78 mm | - | 348 W/m² | - |
| 1777660800 | 5.56° C | 56% | 1023.2 hPa | 1.78 mm | - | 307 W/m² | - |
* Rain latest hour (hover to see other rain measurements)
** Current wind speed in m/s (hover to see current wind gust speed)